1498604400.17,63608,21.44,73918.8,6.75,4.07,4.53,0,*73
1498604401.35,63609,21.44,73922.3,6.75,3.29,4.33,0,*7F
1498604402.56,63610,21.44,73922.8,6.75,2.81,4.23,0,*75
1498604403.73,63611,21.44,73930.5,6.79,2.95,4.45,0,*7D
1498604404.93,63612,21.44,73924.0,6.79,2.47,4.33,0,*70
1498604406.16,63613,21.44,73922.5,6.75,1.71,4.01,0,*7A
1498604407.35,63614,21.44,73918.0,6.79,1.51,3.55,0,*75
1498604408.58,63615,21.44,73924.5,6.75,2.09,3.97,0,*78
1498604409.78,63616,21.44,73930.8,6.75,2.69,4.19,0,*7C
1498604410.99,63617,21.44,73930.0,6.75,3.15,4.57,0,*7D
1498604412.22,63618,21.44,73932.3,6.75,3.71,4.59,0,*7E
1498604413.43,63619,21.44,73930.8,6.75,4.23,4.67,0,*72
1498604414.64,63620,21.44,73934.0,6.75,4.57,4.67,0,*7B
1498604415.87,63621,21.44,73930.5,6.75,4.79,4.79,0,*79
1498604417.1,63622,21.44,73928.3,6.75,4.93,4.79,0,*7E
1498604418.31,63623,21.44,73936.0,6.75,5.15,4.93,0,*74
1498604419.48,63624,21.44,73934.0,6.79,5.29,5.07,0,*7C
1498604420.68,63625,21.44,73930.0,6.79,4.81,4.71,0,*7E
1498604421.88,63626,21.44,73922.0,6.75,5.01,4.81,0,*77
1498604423.12,63627,21.44,73924.8,6.75,5.05,4.79,0,*75
1498604424.32,63628,21.44,73932.8,6.75,5.11,4.79,0,*7F
1498604425.53,63629,21.44,73932.3,6.75,5.11,4.67,0,*71
1498604426.73,63630,21.44,73934.8,6.75,4.79,4.07,0,*70
1498604427.94,63631,21.44,73934.8,6.75,4.41,3.49,0,*77
1498604429.15,63632,21.44,73928.3,6.75,3.85,2.89,0,*76
1498604430.35,63633,21.44,73926.0,6.75,2.91,1.93,0,*7B
1498604431.54,63634,21.44,73922.3,6.79,2.27,1.71,0,*71
1498604432.78,63635,21.44,73920.8,6.73,1.43,1.47,0,*7E
1498604434.04,63636,21.44,73922.3,6.73,1.85,2.17,0,*71
1498604435.26,63637,21.44,73926.0,6.75,2.65,2.81,0,*74
1498604436.48,63638,21.44,73928.8,6.75,2.59,2.69,0,*72
1498604437.71,63639,21.44,73920.8,6.75,2.47,2.47,0,*70
1498604438.92,63640,21.44,73916.5,6.75,2.35,2.05,0,*7D
1498604440.14,63641,21.44,73918.5,6.75,2.21,2.09,0,*75
1498604441.33,63642,21.44,73916.8,6.79,2.55,2.31,0,*72
1498604442.56,63643,21.44,73914.3,6.75,2.43,2.47,0,*79
1498604443.76,63644,21.44,73904.8,6.73,3.29,3.59,0,*7B
1498604445.02,63645,21.38,73904.8,6.73,3.97,4.31,0,*76
1498604446.22,63646,21.44,73912.8,6.73,4.57,4.89,0,*7D
1498604447.45,63647,21.44,73912.3,6.73,5.05,5.23,0,*7B
1498604448.63,63648,21.44,73912.8,6.75,5.15,5.29,0,*79
1498604449.83,63649,21.44,73912.3,6.75,5.11,5.27,0,*72
1498604451.05,63650,21.44,73918.3,6.73,5.27,5.29,0,*77
1498604452.25,63651,21.44,73922.8,6.73,5.23,5.37,0,*7D
1498604453.47,63652,21.44,73920.5,6.73,5.27,5.41,0,*7B
1498604454.66,63653,21.44,73920.5,6.73,5.29,5.49,0,*7C
1498604455.87,63654,21.44,73922.3,6.73,5.37,5.59,0,*75
1498604457.09,63655,21.44,73922.8,6.73,5.51,5.63,0,*7D
1498604458.31,63656,21.44,73920.5,6.73,5.51,5.71,0,*7D
1498604459.52,63657,21.44,73922.3,6.73,5.63,5.63,0,*7E
1498604460.72,63658,21.44,73926.0,6.75,5.59,5.51,0,*7F
1498604461.9,63659,21.44,73922.0,6.75,5.59,5.59,0,*76
1498604463.09,63660,21.44,73926.3,6.79,5.55,5.45,0,*71
1498604464.32,63661,21.44,73930.5,6.73,5.41,5.27,0,*7B
1498604465.49,63662,21.44,73934.3,6.75,5.29,5.11,0,*75
1498604466.67,63663,21.44,73928.0,6.75,5.11,4.81,0,*77
1498604467.88,63664,21.44,73928.5,6.75,4.53,4.71,0,*78
1498604469.06,63665,21.44,73928.0,6.75,4.41,4.81,0,*75
1498604470.27,63666,21.44,73920.3,6.75,4.59,5.15,0,*73
1498604471.47,63667,21.44,73918.5,6.75,4.89,5.27,0,*7E
1498604472.65,63668,21.44,73916.3,6.75,5.07,5.45,0,*72
1498604473.86,63669,21.44,73918.5,6.79,5.27,5.51,0,*78
1498604475.04,63670,21.44,73922.0,6.75,5.37,5.67,0,*78
1498604476.25,63671,21.44,73920.5,6.75,5.59,5.85,0,*7D
1498604477.47,63672,21.44,73918.3,6.75,5.81,5.93,0,*7C
1498604478.67,63673,21.44,73914.3,6.79,5.89,5.95,0,*7F
1498604479.9,63674,21.44,73912.8,6.79,5.89,5.89,0,*75
1498604481.12,63675,21.44,73910.5,6.79,5.85,5.77,0,*79
1498604482.35,63676,21.44,73916.0,6.75,5.81,5.81,0,*7B
1498604483.57,63677,21.44,73918.3,6.79,5.85,5.85,0,*76
1498604484.79,63678,21.44,73912.3,6.75,5.73,5.73,0,*75
1498604486.01,63679,21.44,73916.5,6.75,5.85,5.77,0,*79
1498604487.23,63680,21.44,73918.0,6.79,5.73,5.73,0,*7E
1498604488.41,63681,21.44,73920.5,6.75,5.63,5.71,0,*70
1498604489.59,63682,21.44,73916.8,6.75,5.63,5.63,0,*70
1498604490.78,63683,21.44,73916.8,6.75,5.63,5.59,0,*78
1498604491.99,63684,21.44,73910.8,6.79,5.55,5.51,0,*7E
1498604493.2,63685,21.44,73914.0,6.75,5.51,5.59,0,*7F
1498604494.37,63686,21.44,73908.0,6.79,5.67,5.63,0,*7C
1498604495.55,63687,21.44,73904.3,6.75,5.63,5.71,0,*76
1498604496.75,63688,21.44,73902.3,6.75,5.71,5.73,0,*78
1498604497.95,63689,21.44,73904.3,6.75,5.71,5.73,0,*79
1498604499.17,63690,21.44,73904.8,6.75,5.73,5.73,0,*73
1498604500.4,63691,21.44,73904.8,6.75,5.73,5.73,0,*72
1498604501.6,63692,21.44,73912.3,6.79,5.89,5.95,0,*70
1498604502.83,63693,21.44,73912.8,6.75,5.85,5.85,0,*70
1498604504.06,63694,21.44,73912.5,6.75,5.73,5.81,0,*7A
1498604505.23,63695,21.38,73896.5,6.79,5.67,5.67,0,*7A
1498604506.4,63696,21.44,73898.5,6.79,5.41,5.41,0,*79
1498604507.58,63697,21.44,73902.3,6.75,5.37,5.29,0,*7B
1498604508.78,63698,21.44,73902.3,6.75,5.15,5.27,0,*7A
1498604509.98,63699,21.44,73908.3,6.73,5.37,5.37,0,*7C
1498604511.18,63700,21.44,73912.0,6.75,5.49,5.51,0,*72
1498604512.35,63701,21.44,73908.3,6.75,5.41,5.41,0,*7A
1498604513.52,63702,21.44,73912.0,6.79,5.33,5.45,0,*74
1498604514.7,63703,21.44,73916.3,6.75,5.37,5.41,0,*79
1498604515.92,63704,21.44,73918.0,6.75,5.51,5.51,0,*7F
1498604517.14,63705,21.44,73918.8,6.79,5.55,5.55,0,*72
1498604518.32,63706,21.44,73924.5,6.75,5.41,5.37,0,*7C
1498604519.49,63707,21.44,73924.8,6.75,5.41,5.37,0,*7D
1498604520.74,63708,21.44,73916.0,6.73,5.27,5.27,0,*75
1498604521.92,63709,21.44,73918.0,6.75,5.15,5.11,0,*76
1498604523.15,63710,21.38,73916.3,6.73,5.15,5.05,0,*7D
1498604524.35,63711,21.44,73924.5,6.73,5.41,5.37,0,*7C
1498604525.54,63712,21.44,73928.3,6.73,5.49,5.29,0,*78
1498604526.77,63713,21.44,73930.0,6.73,5.37,5.27,0,*7E
1498604527.99,63714,21.44,73918.8,6.73,5.37,5.27,0,*79
1498604529.22,63715,21.44,73910.8,6.73,5.37,5.27,0,*78
1498604530.44,63716,21.44,73906.5,6.73,5.29,5.27,0,*74
1498604531.61,63717,21.44,73912.8,6.75,5.29,5.15,0,*72
1498604532.81,63718,21.38,73924.3,6.75,5.29,5.05,0,*7C
1498604534.04,63719,21.44,73922.8,6.73,5.29,4.93,0,*75
1498604535.22,63720,21.44,73916.3,6.75,4.81,4.41,0,*75
1498604536.45,63721,21.44,73914.8,6.73,4.79,4.41,0,*75
1498604537.61,63722,21.44,73912.8,6.79,4.57,4.19,0,*7D
1498604538.84,63723,21.44,73906.0,6.73,4.57,4.31,0,*7C
1498604540.05,63724,21.44,73900.0,6.71,4.67,4.53,0,*7E
1498604541.31,63725,21.44,73916.3,6.73,5.05,4.93,0,*74
1498604542.53,63726,21.44,73930.0,6.73,5.23,5.27,0,*7D
1498604543.74,63727,21.38,73938.8,6.71,5.23,5.27,0,*7E
1498604544.92,63728,21.44,73938.5,6.75,5.15,5.15,0,*71
1498604546.1,63729,21.44,73926.3,6.75,5.11,5.11,0,*70
1498604547.34,63730,21.44,73930.3,6.71,4.97,4.97,0,*7C
1498604548.54,63731,21.44,73928.0,6.71,4.85,4.97,0,*7E
1498604549.77,63732,21.38,73924.0,6.73,4.93,4.89,0,*77
1498604551.0,63733,21.38,73928.5,6.73,4.79,4.57,0,*71
1498604552.23,63734,21.38,73922.8,6.73,4.79,4.33,0,*74
1498604553.41,63735,21.44,73928.0,6.71,4.53,3.93,0,*72
1498604554.67,63736,21.44,73932.0,6.73,4.31,3.41,0,*78
1498604555.93,63737,21.44,73938.8,6.73,4.01,3.15,0,*7B
1498604557.11,63738,21.38,73932.8,6.71,3.59,2.61,0,*7E
1498604558.34,63739,21.44,73928.0,6.73,3.59,2.77,0,*7A
1498604559.59,63740,21.38,73924.0,6.73,3.97,3.07,0,*70
1498604560.82,63741,21.44,73924.8,6.73,3.89,2.59,0,*74
1498604562.05,63742,21.38,73920.0,6.71,3.15,1.55,0,*7F
1498604563.3,63743,21.38,73914.8,6.73,2.77,1.09,0,*70
1498604564.47,63744,21.44,73918.0,6.71,2.31,0.97,0,*41
1498604565.7,63745,21.44,73926.3,6.73,2.35,1.37,0,*7D
1498604566.92,63746,21.38,73924.8,6.73,1.75,0.29,0,*47
1498604568.11,63747,21.44,73920.5,6.71,0.67,-0.65,0,*53
1498604569.33,63748,21.38,73918.8,6.73,0.37,-0.37,0,*5C
1498604570.55,63749,21.44,73920.5,6.73,0.97,0.41,0,*7B
1498604571.75,63750,21.44,73922.5,6.71,1.41,1.33,0,*7F
1498604572.98,63751,21.38,73918.5,6.73,1.21,0.97,0,*45
1498604574.23,63752,21.44,73918.0,6.73,1.47,1.43,0,*7E
1498604575.45,63753,21.38,73912.3,6.73,1.01,1.47,0,*79
1498604576.69,63754,21.44,73914.3,6.73,0.47,1.25,0,*49
1498604577.93,63755,21.44,73908.5,6.73,0.13,1.25,0,*49
1498604579.17,63756,21.44,73906.5,6.71,-1.05,1.09,0,*5D
1498604580.36,63757,21.44,73910.0,6.71,-0.61,1.71,0,*60
1498604581.52,63758,21.38,73910.0,6.71,0.01,2.27,0,*74
1498604582.72,63759,21.44,73914.5,6.71,1.59,2.99,0,*7C
1498604583.98,63760,21.38,73906.3,6.73,2.21,3.41,0,*7C
1498604585.18,63761,21.44,73916.0,6.71,3.45,4.27,0,*7B
1498604586.41,63762,21.44,73912.5,6.73,4.23,4.67,0,*79
1498604587.62,63763,21.38,73910.5,6.71,4.53,4.67,0,*7D
1498604588.83,63764,21.38,73918.3,6.71,4.89,5.01,0,*7C
1498604590.03,63765,21.44,73926.0,6.71,5.27,5.23,0,*78
1498604591.25,63766,21.44,73916.8,6.73,5.29,5.27,0,*73
1498604592.46,63767,21.44,73912.0,6.71,5.01,4.85,0,*73
1498604593.64,63768,21.44,73918.5,6.71,4.85,4.85,0,*71
1498604594.85,63769,21.44,73920.3,6.71,4.41,4.75,0,*77
1498604596.05,63770,21.38,73924.8,6.71,4.49,4.97,0,*7B
1498604597.28,63771,21.38,73924.5,6.73,5.01,5.29,0,*71
1498604598.51,63772,21.44,73920.8,6.71,4.67,4.97,0,*75
1498604599.75,63773,21.44,73920.8,6.71,4.63,5.01,0,*7E
1498604600.96,63774,21.38,73920.8,6.71,4.63,5.11,0,*78
1498604602.19,63775,21.44,73922.3,6.73,5.01,5.37,0,*7A
1498604603.37,63776,21.44,73924.8,6.71,5.11,5.37,0,*7A
1498604604.57,63777,21.38,73924.0,6.73,5.15,5.23,0,*78
1498604605.79,63778,21.38,73928.3,6.73,5.23,5.23,0,*72
1498604606.97,63779,21.38,73926.8,6.71,5.23,5.23,0,*71
1498604608.17,63780,21.38,73928.8,6.73,5.37,5.37,0,*75
1498604609.37,63781,21.38,73926.8,6.73,5.41,5.41,0,*74
1498604610.57,63782,21.38,73918.5,6.73,5.41,5.41,0,*77
1498604611.77,63783,21.44,73922.8,6.73,5.41,5.41,0,*76
1498604612.97,63784,21.38,73920.8,6.73,5.49,5.41,0,*79
1498604614.17,63785,21.38,73920.5,6.73,5.49,5.49,0,*70
1498604615.39,63786,21.38,73922.0,6.73,5.41,5.51,0,*72
1498604616.59,63787,21.38,73922.3,6.73,5.49,5.41,0,*7A
1498604617.79,63788,21.38,73916.8,6.73,5.41,5.41,0,*7D
1498604618.99,63789,21.38,73912.8,6.73,5.41,5.41,0,*7C
1498604620.19,63790,21.38,73908.8,6.73,5.49,5.41,0,*7C
1498604621.38,63791,21.38,73908.5,6.73,5.59,5.41,0,*7C
1498604622.59,63792,21.38,73914.5,6.73,5.71,5.71,0,*76
1498604623.84,63793,21.38,73924.5,6.73,5.73,5.81,0,*7A
1498604625.09,63794,21.38,73930.5,6.73,5.81,5.81,0,*70
1498604626.34,63795,21.38,73924.8,6.73,5.81,5.73,0,*7C
1498604627.59,63796,21.38,73922.3,6.73,5.85,5.81,0,*76
1498604628.84,63797,21.38,73916.0,6.73,5.85,5.85,0,*73
1498604630.1,63798,21.44,73924.8,6.73,5.93,5.81,0,*7F
1498604631.34,63799,21.38,73922.0,6.73,5.81,5.73,0,*70
1498604632.52,63800,21.38,73918.5,6.75,5.63,5.63,0,*74
1498604633.73,63801,21.38,73918.8,6.75,5.51,5.59,0,*7D
1498604634.93,63802,21.44,73928.0,6.75,5.51,5.59,0,*7E
1498604636.11,63803,21.38,73926.8,6.75,5.59,5.59,0,*77
1498604637.29,63804,21.38,73920.8,6.75,5.41,5.59,0,*79
1498604638.48,63805,21.38,73922.3,6.79,5.45,5.51,0,*78
1498604639.66,63806,21.44,73922.5,6.75,5.37,5.41,0,*73
1498604640.84,63807,21.38,73918.5,6.75,5.23,5.29,0,*79
1498604642.01,63808,21.44,73914.5,6.75,5.11,5.29,0,*77
1498604643.19,63809,21.38,73912.5,6.75,5.15,5.37,0,*7D
1498604644.36,63810,21.38,73910.8,6.79,5.19,5.41,0,*74
1498604645.55,63811,21.38,73904.5,6.79,5.27,5.41,0,*78
1498604646.77,63812,21.38,73910.0,6.73,5.27,5.37,0,*70
1498604647.96,63813,21.38,73916.5,6.73,5.37,5.41,0,*71
1498604649.16,63814,21.44,73914.3,6.73,5.29,5.29,0,*77
1498604650.36,63815,21.38,73924.5,6.73,5.37,5.49,0,*7F
1498604651.56,63816,21.38,73920.5,6.73,5.49,5.59,0,*74
1498604652.79,63817,21.38,73922.0,6.73,5.41,5.51,0,*75
1498604653.98,63818,21.38,73930.5,6.73,5.49,5.49,0,*7B
1498604655.23,63819,21.38,73930.8,6.73,5.51,5.51,0,*7A
1498604656.42,63820,21.38,73922.8,6.73,5.29,5.29,0,*70
1498604657.67,63821,21.44,73926.3,6.73,5.27,5.27,0,*71
1498604658.87,63822,21.38,73924.5,6.73,5.37,5.49,0,*7B
1498604660.08,63823,21.44,73918.8,6.73,5.27,5.29,0,*7D
1498604661.28,63824,21.38,73918.3,6.73,5.41,5.49,0,*7C
1498604662.51,63825,21.38,73912.3,6.73,5.49,5.51,0,*7C
1498604663.71,63826,21.38,73908.3,6.73,5.41,5.41,0,*76
1498604664.88,63827,21.44,73912.8,6.71,5.41,5.41,0,*75
1498604666.08,63828,21.38,73908.3,6.73,5.41,5.41,0,*78
1498604667.3,63829,21.38,73906.8,6.73,5.27,5.37,0,*78
1498604668.52,63830,21.38,73906.5,6.73,5.27,5.37,0,*70
1498604669.7,63831,21.38,73904.3,6.71,5.33,5.33,0,*72
1498604670.92,63832,21.44,73914.0,6.73,5.49,5.51,0,*7A
1498604672.15,63833,21.38,73916.5,6.73,5.51,5.49,0,*7B
1498604673.35,63834,21.38,73920.8,6.73,5.41,5.49,0,*7D
1498604674.54,63835,21.38,73916.8,6.73,5.29,5.41,0,*7A
1498604675.74,63836,21.38,73918.5,6.75,5.27,5.23,0,*75
1498604676.93,63837,21.38,73918.8,6.75,5.15,5.23,0,*75
1498604678.16,63838,21.38,73938.0,6.73,5.27,5.23,0,*7D
1498604679.33,63839,21.38,73904.3,6.71,5.07,4.89,0,*7D
1498604680.56,63840,21.38,73892.8,6.73,5.27,5.11,0,*73
1498604681.78,63841,21.38,73900.0,6.73,5.37,5.27,0,*76
1498604682.98,63842,21.38,73906.8,6.73,5.29,5.15,0,*7B
1498604684.19,63843,21.38,73912.5,6.71,5.19,5.01,0,*7E
1498604685.4,63844,21.38,73900.8,6.71,5.07,4.79,0,*78
1498604686.6,63845,21.38,73904.3,6.75,5.05,4.81,0,*78
1498604687.8,63846,21.38,73906.8,6.73,5.11,4.89,0,*70
1498604689.03,63847,21.44,73914.8,6.73,5.15,4.79,0,*7A
1498604690.24,63848,21.38,73918.5,6.75,5.05,4.57,0,*7E
1498604691.44,63849,21.38,73916.3,6.73,4.81,4.45,0,*77
1498604692.62,63850,21.38,73904.3,6.71,4.85,4.41,0,*7D
1498604693.83,63851,21.38,73904.8,6.73,4.89,4.33,0,*77
1498604695.03,63852,21.38,73902.8,6.71,4.67,4.15,0,*72
1498604696.24,63853,21.38,73900.0,6.71,4.79,4.41,0,*7D
1498604697.44,63854,21.38,73906.0,6.71,4.97,4.53,0,*79
1498604698.67,63855,21.44,73912.5,6.71,4.75,4.31,0,*70
1498604699.85,63856,21.38,73912.5,6.71,4.53,4.19,0,*7D
1498604701.05,63857,21.38,73904.5,6.73,4.23,4.07,0,*76
1498604702.3,63858,21.38,73906.8,6.73,3.79,4.01,0,*77
1498604703.5,63859,21.38,73906.0,6.71,3.33,3.85,0,*71
1498604704.73,63860,21.44,73912.8,6.71,2.89,3.67,0,*77
1498604705.93,63861,21.38,73918.8,6.71,2.89,3.93,0,*7D
1498604707.14,63862,21.38,73926.8,6.73,3.29,4.07,0,*7D
1498604708.34,63863,21.38,73928.8,6.71,3.71,4.27,0,*71
1498604709.54,63864,21.38,73932.8,6.73,4.19,4.41,0,*7D
1498604710.75,63865,21.38,73936.3,6.71,4.31,4.37,0,*75
1498604711.96,63866,21.44,73944.0,6.73,4.33,4.33,0,*72
1498604713.21,63867,21.38,73938.0,6.73,4.01,4.01,0,*73
1498604714.46,63868,21.38,73936.3,6.73,3.37,3.49,0,*75
1498604715.69,63869,21.38,73932.8,6.71,3.23,3.67,0,*7F
1498604716.91,63870,21.38,73936.3,6.71,3.67,4.37,0,*75
1498604718.11,63871,21.38,73934.5,6.71,4.19,4.79,0,*70
1498604719.3,63872,21.38,73928.3,6.71,4.57,5.07,0,*71
1498604720.49,63873,21.38,73928.5,6.73,4.81,5.29,0,*75
1498604721.68,63874,21.38,73930.3,6.71,4.89,5.33,0,*73
1498604722.89,63875,21.38,73932.0,6.71,5.01,5.33,0,*73
1498604724.11,63876,21.38,73930.3,6.73,4.93,5.37,0,*7C
1498604725.32,63877,21.38,73924.5,6.71,4.97,5.33,0,*7F
1498604726.53,63878,21.38,73924.3,6.71,4.79,5.07,0,*77
1498604727.71,63879,21.38,73922.3,6.71,4.49,4.85,0,*7E
1498604728.92,63880,21.38,73924.5,6.73,4.11,4.41,0,*7F
1498604730.17,63881,21.38,73918.0,6.73,3.53,3.41,0,*78
1498604731.4,63882,21.38,73916.5,6.73,3.15,2.99,0,*7D
1498604732.61,63883,21.38,73916.0,6.71,2.61,2.39,0,*76
1498604733.84,63884,21.38,73916.5,6.71,2.05,2.13,0,*7B
1498604735.08,63885,21.38,73914.0,6.71,2.51,2.51,0,*7D
1498604736.3,63886,21.38,73910.0,6.71,2.39,2.55,0,*74
1498604737.5,63887,21.38,73912.0,6.71,2.99,3.23,0,*7F
1498604738.7,63888,21.38,73916.0,6.71,3.45,3.85,0,*7C
1498604739.91,63889,21.38,73922.8,6.71,3.71,4.07,0,*77
1498604741.11,63890,21.38,73930.5,6.71,3.49,3.93,0,*7E
1498604742.29,63891,21.38,73934.3,6.71,3.55,3.93,0,*72
1498604743.54,63892,21.38,73924.3,6.73,3.19,3.53,0,*77
1498604744.72,63893,21.38,73922.0,6.71,2.61,3.25,0,*7B
1498604745.94,63894,21.38,73908.5,6.69,2.13,2.95,0,*7A
1498604747.14,63895,21.38,73910.0,6.69,2.27,3.25,0,*76
1498604748.37,63896,21.38,73918.5,6.69,2.65,3.67,0,*75
1498604749.6,63897,21.38,73930.8,6.69,2.85,3.93,0,*71
1498604750.85,63898,21.38,73930.3,6.69,3.03,3.97,0,*75
1498604752.07,63899,21.38,73926.5,6.69,2.85,3.55,0,*75
1498604753.28,63900,21.38,73928.5,6.69,2.65,3.59,0,*76
1498604754.5,63901,21.38,73930.8,6.69,2.51,3.85,0,*71
1498604755.7,63902,21.38,73934.3,6.69,3.25,4.15,0,*7E
1498604756.91,63903,21.38,73936.5,6.67,3.41,4.27,0,*72
1498604758.09,63904,21.38,73942.3,6.67,3.55,4.53,0,*73
1498604759.35,63905,21.38,73942.0,6.69,3.67,4.63,0,*7E
1498604760.58,63906,21.38,73934.5,6.71,3.71,4.63,0,*73
1498604761.79,63907,21.38,73946.3,6.67,4.05,4.81,0,*7D
1498604763.04,63908,21.38,73946.5,6.67,4.05,4.71,0,*7D
1498604764.25,63909,21.38,73946.3,6.67,4.33,4.71,0,*79
1498604765.49,63910,21.38,73938.3,6.67,4.67,4.71,0,*70
1498604766.7,63911,21.38,73928.5,6.67,5.07,4.97,0,*7E
1498604767.88,63912,21.38,73926.5,6.71,5.45,5.19,0,*7B
1498604769.08,63913,21.38,73926.5,6.63,5.29,4.93,0,*70
1498604770.25,63914,21.38,73936.8,6.63,5.29,4.89,0,*7C
1498604771.42,63915,21.38,73932.0,6.67,5.29,4.81,0,*71
1498604772.66,63916,21.38,73938.5,6.67,5.05,4.63,0,*70
1498604773.84,63917,21.38,73938.0,6.67,4.85,4.49,0,*70
1498604775.03,63918,21.38,73932.5,6.65,4.81,4.49,0,*79
1498604776.29,63919,21.38,73932.8,6.65,4.93,4.79,0,*78
1498604777.55,63920,21.38,73932.5,6.65,5.05,4.93,0,*78
1498604778.78,63921,21.38,73926.3,6.65,5.11,4.93,0,*7C
1498604780.01,63922,21.38,73926.8,6.65,4.93,4.89,0,*7F
1498604781.22,63923,21.38,73926.0,6.63,5.11,5.01,0,*72
1498604782.4,63924,21.38,73936.8,6.67,5.41,5.29,0,*7E
1498604783.58,63925,21.38,73930.0,6.67,5.33,5.33,0,*71
1498604784.76,63926,21.38,73928.5,6.67,5.29,5.29,0,*72
1498604785.99,63927,21.38,73932.5,6.67,5.55,5.55,0,*73
1498604787.17,63928,21.38,73928.8,6.67,5.67,5.67,0,*7C
1498604788.38,63929,21.38,73928.0,6.69,5.67,5.59,0,*7E
1498604789.59,63930,21.38,73928.5,6.67,5.73,5.67,0,*70
1498604790.82,63931,21.38,73936.8,6.67,5.73,5.77,0,*70
1498604792.02,63932,21.38,73936.5,6.69,5.71,5.71,0,*79
1498604793.25,63933,21.38,73928.3,6.67,5.55,5.55,0,*76
1498604794.42,63934,21.38,73938.5,6.67,5.45,5.33,0,*70
1498604795.64,63935,21.38,73938.8,6.69,5.45,5.27,0,*7A
1498604796.87,63936,21.38,73936.8,6.65,5.27,5.15,0,*70
1498604798.06,63937,21.38,73934.8,6.65,5.15,4.81,0,*7C
1498604799.27,63938,21.38,73930.3,6.67,5.23,4.97,0,*73
1498604800.51,63939,21.38,73926.8,6.69,5.19,4.97,0,*75
1498604801.7,63940,21.38,73926.8,6.67,5.19,5.11,0,*7A
1498604802.89,63941,21.38,73924.8,6.67,5.07,5.07,0,*73
1498604804.07,63942,21.38,73924.3,6.67,5.07,5.07,0,*70
1498604805.26,63943,21.38,73924.8,6.67,5.19,5.19,0,*71
1498604806.49,63944,21.38,73926.5,6.69,5.23,5.27,0,*7C
1498604807.68,63945,21.38,73930.8,6.67,5.19,5.29,0,*74
1498604808.86,63946,21.38,73934.0,6.67,5.15,5.19,0,*78
1498604810.07,63947,21.38,73930.8,6.67,4.85,4.97,0,*76
1498604811.28,63948,21.38,73930.0,6.67,4.85,4.93,0,*7D
1498604812.49,63949,21.38,73926.3,6.63,4.93,4.89,0,*74
1498604813.73,63950,21.38,73924.0,6.63,5.05,5.01,0,*73
1498604814.96,63951,21.38,73914.8,6.65,5.11,4.93,0,*7B
1498604816.19,63952,21.38,73894.5,6.65,5.01,4.89,0,*72
1498604817.41,63953,21.38,73888.8,6.65,4.93,4.81,0,*71
1498604818.62,63954,21.38,73886.5,6.63,4.93,4.81,0,*70
1498604819.82,63955,21.38,73888.3,6.63,5.01,4.89,0,*73
1498604821.04,63956,21.38,73888.0,6.65,5.27,5.15,0,*76
1498604822.23,63957,21.38,73900.8,6.63,5.19,5.19,0,*70
1498604823.42,63958,21.38,73902.3,6.63,5.19,5.19,0,*7F
1498604824.63,63959,21.38,73902.0,6.65,5.11,5.11,0,*78
1498604825.85,63960,21.38,73906.5,6.65,5.27,5.15,0,*73
1498604827.08,63961,21.38,73910.3,6.65,5.19,5.27,0,*7E
1498604828.33,63962,21.38,73910.5,6.65,5.27,5.27,0,*70
1498604829.55,63963,21.38,73914.0,6.65,5.37,5.27,0,*70
1498604830.78,63964,21.38,73916.5,6.65,5.37,5.27,0,*77
1498604831.96,63965,21.38,73914.8,6.63,5.29,5.19,0,*72
1498604833.16,63966,21.38,73910.3,6.63,5.37,5.27,0,*73
1498604834.36,63967,21.38,73910.3,6.65,5.37,5.29,0,*7A
1498604835.55,63968,21.38,73908.0,6.65,5.37,5.37,0,*7A
1498604836.76,63969,21.38,73908.8,6.65,5.49,5.59,0,*7A
1498604837.96,63970,21.38,73912.8,6.63,5.59,5.51,0,*7D
1498604839.19,63971,21.38,73914.5,6.65,5.63,5.51,0,*73
1498604840.37,63972,21.38,73914.8,6.63,5.59,5.41,0,*7E
1498604841.54,63973,21.38,73912.0,6.63,5.49,5.41,0,*7E
1498604842.74,63974,21.38,73908.8,6.65,5.59,5.49,0,*76
1498604843.94,63975,21.38,73906.3,6.65,5.49,5.41,0,*7E
1498604845.16,63976,21.38,73910.8,6.65,5.59,5.51,0,*7D
1498604846.37,63977,21.38,73904.3,6.65,5.59,5.59,0,*74
1498604847.57,63978,21.38,73910.8,6.65,5.71,5.59,0,*71
1498604848.78,63979,21.38,73908.5,6.65,5.63,5.59,0,*73
1498604849.99,63980,21.38,73912.0,6.65,5.63,5.59,0,*75
1498604851.2,63981,21.38,73912.0,6.65,5.63,5.59,0,*74
1498604852.4,63982,21.38,73912.3,6.65,5.63,5.59,0,*77
1498604853.63,63983,21.38,73910.8,6.65,5.59,5.51,0,*77
1498604854.83,63984,21.38,73914.0,6.65,5.59,5.59,0,*78
1498604856.04,63985,21.38,73906.5,6.65,5.59,5.59,0,*79
1498604857.22,63986,21.38,73910.8,6.63,5.59,5.63,0,*75
1498604858.44,63987,21.38,73912.0,6.65,5.51,5.59,0,*73
1498604859.65,63988,21.38,73916.3,6.65,5.71,5.63,0,*77
1498604860.87,63989,21.38,73912.8,6.65,5.71,5.73,0,*77
1498604862.07,63990,21.38,73914.8,6.65,5.71,5.71,0,*7D
1498604863.28,63991,21.38,73916.5,6.65,5.63,5.71,0,*7F
1498604864.45,63992,21.38,73914.0,6.63,5.59,5.63,0,*70
1498604865.68,63993,21.38,73916.5,6.67,5.73,5.73,0,*7C
1498604866.86,63994,21.38,73914.0,6.67,5.63,5.63,0,*7B
1498604868.07,63995,21.38,73922.8,6.67,5.63,5.55,0,*7F
1498604869.28,63996,21.38,73916.8,6.65,5.63,5.71,0,*78
1498604870.48,63997,21.38,73922.8,6.65,5.71,5.71,0,*7A
1498604871.73,63998,21.38,73924.3,6.65,5.73,5.73,0,*75
1498604872.93,63999,21.38,73924.0,6.65,5.63,5.63,0,*74
1498604874.13,64000,21.38,73924.3,6.69,5.71,5.71,0,*76
1498604875.33,64001,21.38,73922.0,6.69,5.71,5.71,0,*77
1498604876.54,64002,21.38,73920.0,6.67,5.55,5.63,0,*7F
1498604877.74,64003,21.38,73920.8,6.67,5.55,5.63,0,*7E
1498604878.94,64004,21.38,73920.5,6.69,5.67,5.63,0,*76
1498604880.13,64005,21.38,73922.0,6.67,5.67,5.67,0,*7D
1498604881.32,64006,21.38,73920.0,6.67,5.67,5.71,0,*79
1498604882.56,64007,21.38,73916.5,6.69,5.77,5.77,0,*71
1498604883.74,64008,21.38,73918.3,6.67,5.67,5.67,0,*70
1498604884.97,64009,21.38,73912.3,6.67,5.73,5.73,0,*71
1498604886.2,64010,21.38,73918.5,6.67,5.85,5.85,0,*79
1498604887.41,64011,21.38,73912.8,6.67,5.77,5.67,0,*79
1498604888.59,64012,21.38,73912.5,6.67,5.67,5.63,0,*7F
1498604889.81,64013,21.38,73914.8,6.69,5.71,5.77,0,*72
1498604891.04,64014,21.38,73916.0,6.67,5.73,5.73,0,*7D
1498604892.28,64015,21.38,73920.5,6.69,5.77,5.81,0,*7B
1498604893.51,64016,21.38,73918.8,6.67,5.73,5.77,0,*7B
1498604894.72,64017,21.38,73922.3,6.67,5.67,5.73,0,*7B
1498604895.93,64018,21.38,73920.8,6.67,5.73,5.67,0,*74
1498604897.12,64019,21.38,73922.8,6.67,5.67,5.67,0,*70
1498604898.35,64020,21.38,73920.0,6.69,5.67,5.55,0,*75
1498604899.52,64021,21.38,73922.5,6.67,5.45,5.33,0,*7A
1498604900.75,64022,21.38,73922.8,6.69,5.37,5.27,0,*77
1498604901.93,64023,21.38,73920.3,6.67,5.33,5.07,0,*7E
1498604903.12,64024,21.38,73920.5,6.67,5.45,5.07,0,*78
1498604904.3,64025,21.38,73916.3,6.67,5.45,5.23,0,*7F
1498604905.48,64026,21.38,73918.5,6.67,5.45,5.23,0,*7C
1498604906.67,64027,21.38,73916.5,6.71,5.37,5.23,0,*7F
1498604907.89,64028,21.38,73914.0,6.69,5.27,5.19,0,*71
1498604909.12,64029,21.38,73910.8,6.69,5.27,5.19,0,*70
1498604910.33,64030,21.38,73908.5,6.69,5.11,5.07,0,*72
1498604911.56,64031,21.38,73912.5,6.67,4.97,4.93,0,*7E
1498604912.8,64032,21.38,73916.5,6.67,4.75,4.71,0,*7D
1498604914.04,64033,21.38,73920.8,6.67,4.63,4.63,0,*78
1498604915.23,64034,21.38,73916.3,6.69,4.49,4.49,0,*71
1498604916.46,64035,21.38,73918.8,6.69,4.31,4.07,0,*75
1498604917.72,64036,21.38,73916.0,6.69,4.05,4.05,0,*73
1498604918.95,64037,21.38,73922.8,6.69,3.45,3.55,0,*73
1498604920.2,64038,21.38,73922.3,6.69,2.39,2.85,0,*7A
1498604921.42,64039,21.38,73916.0,6.69,1.59,2.27,0,*76
1498604922.67,64040,21.38,73914.3,6.69,1.47,2.05,0,*77
1498604923.89,64041,21.38,73912.8,6.69,1.01,1.43,0,*75
1498604925.12,64042,21.38,73908.5,6.69,1.79,2.13,0,*7F
1498604926.33,64043,21.38,73910.8,6.67,2.27,2.85,0,*77